Binghamton, NY

10:13 AM EDT on July 28, 2017 (GMT -0400)
Binghamton Regional-Link

Weather History for KBGM - September, 2013

Change the Weather History Date:

Friday, September 13, 2013

  Actual Average Record
Temperature  
Mean Temperature 54 °F 61 °F  
Max Temperature 60 °F 70 °F 87 °F (1952)
Min Temperature 47 °F 52 °F 37 °F (1964)
Degree Days  
Heating Degree Days 11 5  
Month to date heating degree days 58 51  
Since 1 July heating degree days 109 114  
Cooling Degree Days 0 1  
Month to date cooling degree days 41 20  
Year to date cooling degree days 468 368  
Growing Degree Days 4 (Base 50)    
Moisture  
Dew Point 51 °F    
Average Humidity 83    
Maximum Humidity 93    
Minimum Humidity 72    
Precipitation  
Precipitation 0.40 in 0.12 in 0.91 in (1965)
Month to date precipitation 2.32 1.51  
Year to date precipitation 32.61 27.72  
Snow  
Snow 0.00 in 0.00 in 0.00 in (2002)
Month to date snowfall 0.0 0.0  
Since 1 July snowfall 0.0 0.0  
Since 1 September snowfall 0.0 0.0  
Snow Depth 0.00 in    
Sea Level Pressure  
Sea Level Pressure 29.82 in    
Wind  
Wind Speed 9 mph (NW)    
Max Wind Speed 21 mph    
Max Gust Speed 26 mph    
Visibility 8 miles    
Events Rain    
T = Trace of Precipitation, MM = Missing Value Source: NWS Daily Summary

Daily Weather History Graph

Daily Weather History Graph

Search for Another Location

Airport or City:

Trip Planner

Search our weather history database for the weather conditions in past years. The results will help you decide how hot, cold, wet, or windy it might be!

Date:

Astronomy

Sep. 13, 2013 Rise Set
Actual Time 6:42 AM EDT 7:16 PM EDT
Civil Twilight 6:13 AM EDT 7:44 PM EDT
Nautical Twilight 5:40 AM EDT 8:18 PM EDT
Astronomical Twilight 5:06 AM EDT 8:52 PM EDT
Moon 3:09 PM EDT (9/13) 12:04 AM EDT (9/13)
Length of Visible Light 13h 30m
Length of Day
12h 34m
First Quarter, 61% of the Moon is Illuminated
Sep 13
First Quarter
Sep 19
Full
Sep 26
Last Quarter
Oct 4
New
Oct 11
First Quarter

Hourly Weather History & Observations

Time (EDT) Temp. Dew Point Humidity Pressure Visibility Wind Dir Wind Speed Gust Speed Precip Events Conditions
12:53 AM 60.1 °F 57.0 °F 90% 29.73 in 10.0 mi NW 6.9 mph - 0.00 in   Partly Cloudy
1:53 AM 60.1 °F 57.0 °F 90% 29.72 in 10.0 mi NW 5.8 mph - N/A   Mostly Cloudy
2:23 AM 59.0 °F 57.2 °F 94% 29.74 in 10.0 mi WNW 4.6 mph - N/A   Overcast
2:36 AM 59.0 °F 57.2 °F 94% 29.74 in 6.0 mi WNW 4.6 mph - N/A   Mostly Cloudy
2:53 AM 59.0 °F 57.0 °F 93% 29.71 in 8.0 mi WNW 5.8 mph - N/A   Overcast
3:29 AM 57.2 °F 55.4 °F 94% 29.74 in 10.0 mi West 6.9 mph - N/A   Overcast
3:41 AM 57.2 °F 55.4 °F 94% 29.74 in 10.0 mi WNW 6.9 mph - N/A   Overcast
3:48 AM 57.2 °F 55.4 °F 94% 29.74 in 10.0 mi West 9.2 mph - N/A   Overcast
3:53 AM 57.9 °F 55.0 °F 90% 29.72 in 10.0 mi WNW 8.1 mph - N/A   Overcast
4:53 AM 57.9 °F 55.0 °F 90% 29.73 in 10.0 mi WNW 8.1 mph - N/A   Overcast
5:53 AM 57.9 °F 55.0 °F 90% 29.73 in 10.0 mi West 5.8 mph - N/A   Overcast
6:53 AM 57.0 °F 55.0 °F 93% 29.74 in 9.0 mi West 5.8 mph - N/A   Mostly Cloudy
7:48 AM 57.2 °F 55.4 °F 94% 29.75 in 9.0 mi NW 5.8 mph - N/A   Scattered Clouds
7:53 AM 57.0 °F 55.0 °F 93% 29.74 in 10.0 mi NW 5.8 mph - N/A   Partly Cloudy
8:10 AM 57.2 °F 55.4 °F 94% 29.76 in 10.0 mi NW 6.9 mph - N/A   Mostly Cloudy
8:18 AM 57.2 °F 55.4 °F 94% 29.76 in 10.0 mi NW 8.1 mph - N/A   Mostly Cloudy
8:53 AM 57.9 °F 55.0 °F 90% 29.75 in 8.0 mi North 10.4 mph - 0.00 in Rain Light Rain
9:05 AM 57.2 °F 55.4 °F 94% 29.77 in 4.0 mi NNW 9.2 mph - 0.01 in Rain Light Rain
9:53 AM 57.0 °F 55.0 °F 93% 29.78 in 4.0 mi NNW 6.9 mph - 0.08 in Rain Rain
10:04 AM 57.2 °F 53.6 °F 88% 29.79 in 2.5 mi NNW 6.9 mph - 0.02 in Rain Rain
10:15 AM 57.2 °F 53.6 °F 88% 29.79 in 5.0 mi NNW 8.1 mph - 0.04 in Rain Light Rain
10:24 AM 57.2 °F 53.6 °F 88% 29.78 in 10.0 mi NNW 8.1 mph - 0.04 in Rain Light Rain
10:53 AM 57.0 °F 54.0 °F 89% 29.78 in 10.0 mi NNW 9.2 mph - 0.04 in Rain Light Rain
11:17 AM 55.4 °F 53.6 °F 94% 29.80 in 2.5 mi NNW 9.2 mph - 0.02 in Rain Rain
11:20 AM 55.4 °F 53.6 °F 94% 29.80 in 1.0 mi NNW 12.7 mph 18.4 mph 0.05 in Rain Heavy Rain
11:24 AM 55.4 °F 51.8 °F 88% 29.80 in 0.8 mi NW 10.4 mph 18.4 mph 0.12 in Rain Heavy Rain
11:33 AM 55.4 °F 53.6 °F 94% 29.81 in 1.2 mi NNW 6.9 mph - 0.16 in Rain Rain
11:45 AM 55.4 °F 53.6 °F 94% 29.81 in 1.8 mi NNW 12.7 mph - 0.20 in Rain Rain
11:53 AM 55.0 °F 53.1 °F 93% 29.80 in 3.0 mi NNW 9.2 mph - 0.23 in Rain Rain
12:25 PM 57.2 °F 53.6 °F 88% 29.81 in 10.0 mi NW 9.2 mph - 0.02 in   Overcast
12:53 PM 55.9 °F 53.1 °F 90% 29.81 in 10.0 mi NNW 11.5 mph - 0.02 in   Overcast
1:03 PM 55.4 °F 51.8 °F 88% 29.81 in 10.0 mi NNW 13.8 mph - N/A   Overcast
1:53 PM 59.0 °F 51.1 °F 75% 29.81 in 10.0 mi NNW 10.4 mph 17.3 mph N/A   Overcast
2:11 PM 57.2 °F 48.2 °F 72% 29.82 in 10.0 mi NNW 12.7 mph 21.9 mph 0.00 in   Overcast
2:53 PM 57.0 °F 48.0 °F 72% 29.82 in 10.0 mi NNW 12.7 mph 20.7 mph 0.00 in   Mostly Cloudy
3:53 PM 55.9 °F 48.9 °F 77% 29.83 in 10.0 mi NNW 10.4 mph - 0.00 in   Overcast
4:05 PM 55.4 °F 48.2 °F 77% 29.83 in 10.0 mi NNW 16.1 mph 21.9 mph N/A   Overcast
4:53 PM 55.0 °F 46.9 °F 74% 29.85 in 10.0 mi NNW 13.8 mph 24.2 mph N/A   Overcast
5:12 PM 53.6 °F 46.4 °F 77% 29.86 in 10.0 mi NNW 11.5 mph - N/A   Overcast
5:21 PM 53.6 °F 46.4 °F 77% 29.86 in 10.0 mi NNW 13.8 mph 20.7 mph N/A   Overcast
5:45 PM 53.6 °F 46.4 °F 77% 29.87 in 10.0 mi NNW 8.1 mph 17.3 mph 0.00 in Rain Light Rain
5:53 PM 53.1 °F 46.9 °F 80% 29.87 in 10.0 mi NNW 10.4 mph - 0.00 in   Overcast
6:22 PM 51.8 °F 46.4 °F 82% 29.88 in 10.0 mi NW 12.7 mph - N/A   Overcast
6:50 PM 51.8 °F 46.4 °F 82% 29.89 in 10.0 mi NNW 12.7 mph 21.9 mph N/A   Overcast
6:53 PM 51.1 °F 46.0 °F 83% 29.89 in 10.0 mi NNW 10.4 mph 21.9 mph N/A   Overcast
7:53 PM 50.0 °F 46.0 °F 86% 29.92 in 10.0 mi NNW 8.1 mph - N/A   Overcast
8:53 PM 48.9 °F 46.0 °F 90% 29.94 in 10.0 mi NNW 9.2 mph - N/A   Overcast
9:16 PM 48.2 °F 44.6 °F 87% 29.93 in 10.0 mi NNW 10.4 mph 18.4 mph N/A   Overcast
9:53 PM 48.9 °F 45.0 °F 86% 29.94 in 10.0 mi NNW 6.9 mph 16.1 mph N/A   Overcast
10:24 PM 48.2 °F 44.6 °F 87% 29.94 in 7.0 mi NNW 8.1 mph - 0.00 in Rain Light Rain
10:53 PM 48.9 °F 46.0 °F 90% 29.95 in 2.0 mi North 9.2 mph - 0.01 in Rain Light Rain
11:05 PM 48.2 °F 46.4 °F 93% 29.94 in 6.0 mi NNW 9.2 mph - 0.00 in Rain Light Rain
11:23 PM 48.2 °F 46.4 °F 93% 29.94 in 2.5 mi North 11.5 mph - 0.02 in Rain Light Rain
11:27 PM 48.2 °F 44.6 °F 87% 29.94 in 3.0 mi North 12.7 mph - 0.02 in   Overcast
11:38 PM 48.2 °F 44.6 °F 87% 29.94 in 3.0 mi North 13.8 mph - 0.02 in Rain Light Rain
11:53 PM 48.0 °F 45.0 °F 89% 29.95 in 7.0 mi North 11.5 mph - 0.02 in Rain Light Rain